User: anonymous   Login
Location: Unspecified
(41.4086°N, 0.0000°E)
Time: 04:46:27
(UTC+00:00)
Language:

Cosmos 1891 Rocket - Orbit

View from above orbital plane
View from above orbital plane
View from above satellite
View from above satellite

Ground track
Ground track

The orbit is defined by the following mean orbital elements,

1 18403U          26087.87159925 +.00000000 +00000-0 +19591-4 0 00007
2 18403  82.9191 222.2731 0056893 215.6202 144.1153 13.76831325    04
Epoch (UTC): 28 March 2026 20:55:06
Eccentricity: 0.0056893
inclination: 82.9191°
perigee height: 933 km
apogee height: 1017 km
right ascension of ascending node: 222.2731°
argument of perigee: 215.6202°
revolutions per day: 13.76831325
mean anomaly at epoch: 144.1153°

The dashed part of the orbit path shows where the satellite is in the earth's shadow,  

DLR